This is the latest recevied weather packets stored in our database for station/object CW79215. If no packets are shown the sender has not sent any weather packets the latest 10 day(s).
| Time | Temp. | Humidity | Pressure | Rain* | Wind** | Luminosity | Snow |
|---|---|---|---|---|---|---|---|
| 1788015024 | 23.89° C | 39% | 1025.8 hPa | - | - | - | - |
| 1788014127 | 24.44° C | 38% | 1025.7 hPa | - | - | - | - |
| 1788013227 | 25° C | 37% | 1025.9 hPa | - | - | - | - |
| 1788012327 | 25° C | 37% | 1025.9 hPa | - | - | - | - |
| 1788011427 | 25° C | 37% | 1026.1 hPa | - | - | - | - |
| 1788010526 | 25° C | 37% | 1026.1 hPa | - | - | - | - |
| 1788009626 | 24.44° C | 37% | 1026.2 hPa | - | - | - | - |
| 1788008726 | 24.44° C | 36% | 1026.1 hPa | - | - | - | - |
| 1788007826 | 26.11° C | 33% | 1026.1 hPa | - | - | - | - |
| 1788006926 | 26.11° C | 33% | 1026.2 hPa | - | - | - | - |
| 1788006026 | 25° C | 35% | 1026.4 hPa | - | - | - | - |
| 1788005126 | 24.44° C | 37% | 1026.5 hPa | - | - | - | - |
| 1788004226 | 24.44° C | 37% | 1026.5 hPa | - | - | - | - |
| 1788003326 | 23.89° C | 39% | 1026.7 hPa | - | - | - | - |
| 1788002426 | 23.89° C | 38% | 1026.8 hPa | - | - | - | - |
| 1788001526 | 24.44° C | 36% | 1026.9 hPa | - | - | - | - |
| 1788000626 | 25° C | 35% | 1027 hPa | - | - | - | - |
| 1787999725 | 25° C | 37% | 1026.9 hPa | - | - | - | - |
| 1787998825 | 24.44° C | 38% | 1027 hPa | - | - | - | - |
| 1787997925 | 25° C | 39% | 1027.1 hPa | - | - | - | - |
| 1787997024 | 24.44° C | 40% | 1027.1 hPa | - | - | - | - |
| 1787996124 | 24.44° C | 40% | 1027.3 hPa | - | - | - | - |
| 1787995224 | 25° C | 41% | 1027.2 hPa | - | - | - | - |
| 1787994324 | 24.44° C | 42% | 1027.3 hPa | - | - | - | - |
| 1787993424 | 24.44° C | 43% | 1027.4 hPa | - | - | - | - |
* Rain since midnight (hover to see other rain measurements)
** Current wind speed in m/s (hover to see current wind gust speed)